Regional Weather Roundup
Issued by NWS

Home | Current Version | Previous Version | Graphics & Text | Print | Product List | Glossary On
Versions: 1 2 3 4 5 6 7 8 9 10 11 12 13 14 15 16 17 18 19 20 21 22 23 24 25 26 27 28 29 30 31 32 33 34 35 36 37 38 39 40 41 42 43 44 45 46 47 48 49 50
000
ASUS45 KSLC 310410
RWRUT

UTAH REGIONAL WEATHER ROUNDUP
NATIONAL WEATHER SERVICE SALT LAKE CITY UT
1000 PM MDT WED JUL 30 2014

UTZ001>011-023>025-310500-

NORTHERN UTAH

CITY           SKY/WX    TMP DP  RH WIND       PRES   REMARKS
HILL AFB       CLEAR     70  53  54 E16G24    30.22R
LOGAN          CLEAR     72  49  44 SE17G25   30.23R
OGDEN          CLEAR     73  50  44 E14       30.18S
PROVO AIRPORT  CLEAR     72  55  56 E5        30.19R
SALT LAKE CITY PTCLDY    74  52  46 E8        30.17R
VERNAL         MOCLDY    65  52  62 N8        30.28R
WENDOVER       CLEAR     75  54  46 E6        30.18R
HEBER CITY     PTCLDY    64  52  63 N3        30.28R
WEST JORDAN    CLEAR     73  59  60 N16       30.20R

$$

UTZ012>022-026-027-310500-

SOUTHERN UTAH

CITY           SKY/WX    TMP DP  RH WIND       PRES   REMARKS
BRYCE CANYON   PTCLDY    62  46  55 W9        30.38R
CEDAR CITY     PTCLDY    69  54  58 CALM      30.22R
MILFORD        MOCLDY    76  49  38 N5        30.17R
MOAB/CYNLANDS  PTCLDY    75  56  51 NE6       30.13R
PRICE          PTCLDY    69  53  56 N13       30.26R
ST GEORGE      CLEAR     91  48  22 CALM      29.98R
KANAB            N/A     75  54  46 E3        30.18

$$

REGIONAL REPORTS     COLORADO/ARIZONA

CITY           SKY/WX    TMP DP  RH WIND       PRES   REMARKS
CRAIG, CO      CLOUDY    57  56  96 E8        30.32R
GRAND JUNCTION MOCLDY    68  60  75 N7        30.18R
RIFLE          CLOUDY    69  57  65 NW5       30.24R
MONTROSE       CLOUDY    71  53  52 E5        30.25R
CORTEZ         PTCLDY    69  53  56 CALM      30.21R
PAGE, AZ       PTCLDY    87  46  24 NW5       30.06R
GRAND CANYON   PTCLDY    66  48  52 CALM      30.29R
KINGMAN        CLEAR     88  47  24 N5        30.02R
FLAGSTAFF      CLEAR     69  45  41 SW6       30.33R

$$

REGIONAL REPORTS    NEVADA/IDAHO/WYOMING

CITY           SKY/WX    TMP DP  RH WIND       PRES   REMARKS
LAS VEGAS, NV  MOCLDY    97  48  18 NW22G30   29.87S HX  93
ELY            PTCLDY    71  45  39 CALM      30.28R
ELKO           MOCLDY    75  46  35 NE3       30.19R
POCATELLO, ID  CLEAR     72  47  40 E9        30.23R
BURLEY         PTCLDY    69  55  60 SE5       30.18R
EVANSTON, WY   CLOUDY    58  52  80 NE8       30.40R
ROCK SPRINGS   MOCLDY    58  42  55 NE8       30.40R

$$


USA.gov is the U.S. government's official web portal to all federal, state and local government web resources and services.